This is the latest recevied weather packets stored in our database for station/object W3JGB. If no packets are shown the sender has not sent any weather packets the latest 10 day(s).
| Time | Temp. | Humidity | Pressure | Rain* | Wind** | Luminosity | Snow |
|---|---|---|---|---|---|---|---|
| 1778188022 | 16.67° C | 39% | 1007.5 hPa | 0 mm | - | 124 W/m² | - |
| 1778187718 | 17.78° C | 41% | 1007.3 hPa | 0 mm | - | 162 W/m² | - |
| 1778187415 | 16.67° C | 41% | 1007.4 hPa | 0 mm | - | 276 W/m² | - |
| 1778187112 | 16.11° C | 40% | 1007.6 hPa | 0 mm | - | 113 W/m² | - |
| 1778186808 | 16.67° C | 38% | 1007.6 hPa | 0 mm | - | 132 W/m² | - |
| 1778186506 | 17.22° C | 39% | 1007.7 hPa | 0 mm | - | 147 W/m² | - |
| 1778186204 | 17.22° C | 38% | 1007.7 hPa | 0 mm | - | 157 W/m² | - |
| 1778185901 | 16.67° C | 39% | 1007.6 hPa | 0 mm | - | 133 W/m² | - |
| 1778185596 | 16.67° C | 39% | 1007.7 hPa | 0 mm | - | 159 W/m² | - |
| 1778185293 | 16.67° C | 41% | 1007.7 hPa | 0 mm | - | 143 W/m² | - |
| 1778184988 | 16.67° C | 40% | 1007.4 hPa | 0 mm | - | 147 W/m² | - |
| 1778184685 | 17.22° C | 39% | 1007.7 hPa | 0 mm | - | 143 W/m² | - |
| 1778184381 | 17.22° C | 37% | 1007.7 hPa | 0 mm | - | 701 W/m² | - |
| 1778184077 | 17.22° C | 36% | 1008 hPa | 0 mm | - | 228 W/m² | - |
| 1778183774 | 16.67° C | 39% | 1007.7 hPa | 0 mm | - | 220 W/m² | - |
| 1778183472 | 16.67° C | 38% | 1007.9 hPa | 0 mm | - | 189 W/m² | - |
| 1778183168 | 16.67° C | 38% | 1007.8 hPa | 0 mm | - | 172 W/m² | - |
| 1778182863 | 16.67° C | 39% | 1007.9 hPa | 0 mm | - | 157 W/m² | - |
| 1778182561 | 16.67° C | 39% | 1008 hPa | 0 mm | - | 721 W/m² | - |
| 1778182258 | 16.11° C | 39% | 1008.2 hPa | 0 mm | - | 133 W/m² | - |
| 1778181954 | 16.67° C | 38% | 1008.1 hPa | 0 mm | - | 138 W/m² | - |
| 1778181651 | 16.67° C | 38% | 1008 hPa | 0 mm | - | 174 W/m² | - |
| 1778181346 | 17.22° C | 38% | 1008.2 hPa | 0 mm | - | 790 W/m² | - |
| 1778181044 | 17.22° C | 37% | 1008.6 hPa | 0 mm | - | 546 W/m² | - |
| 1778180741 | 17.22° C | 40% | 1008.6 hPa | 0 mm | - | 235 W/m² | - |
* Rain latest hour (hover to see other rain measurements)
** Current wind speed in m/s (hover to see current wind gust speed)